Time,TemperatureF,DewpointF,PressureIn,WindDirection,WindDirectionDegrees,WindSpeedMPH,WindSpeedGustMPH,Humidity,HourlyPrecipIn,Conditions,Clouds,dailyrainin,SoftwareType,DateUTC
2013-06-15 00:02:00,72.0,45.0,29.98,ESE,119,5.0,7.0,38,0.01,,,-99.99,,2013-06-15 06:02:00,
2013-06-15 00:12:00,72.0,45.0,29.98,ENE,67,0.0,6.0,38,0.01,,,-99.99,,2013-06-15 06:12:00,
2013-06-15 00:24:00,72.0,46.0,29.99,WNW,292,4.0,5.0,39,0.01,,,-99.99,,2013-06-15 06:24:00,
2013-06-15 00:33:00,71.0,45.0,29.99,NNW,344,5.0,5.0,39,0.01,,,-99.99,,2013-06-15 06:33:00,
2013-06-15 00:43:00,70.0,46.0,30.00,NNE,25,9.0,9.0,43,0.01,,,-99.99,,2013-06-15 06:43:00,
2013-06-15 00:53:00,69.0,47.0,29.99,NE,52,5.0,7.0,45,0.01,,,-99.99,,2013-06-15 06:53:00,
2013-06-15 01:01:00,68.0,48.0,29.99,ENE,60,6.0,6.0,48,0.00,,,-99.99,,2013-06-15 07:01:00,
2013-06-15 01:11:00,68.0,48.0,29.98,East,99,5.0,8.0,48,0.00,,,-99.99,,2013-06-15 07:11:00,
2013-06-15 01:23:00,68.0,48.0,29.98,ESE,112,4.0,6.0,49,0.00,,,-99.99,,2013-06-15 07:23:00,
2013-06-15 01:33:00,68.0,48.0,29.98,ESE,105,2.0,5.0,48,0.00,,,-99.99,,2013-06-15 07:33:00,
2013-06-15 01:43:00,68.0,48.0,29.99,East,95,2.0,3.0,48,0.00,,,-99.99,,2013-06-15 07:43:00,
2013-06-15 01:53:00,67.0,48.0,29.99,West,275,3.0,4.0,51,0.00,,,-99.99,,2013-06-15 07:53:00,
2013-06-15 02:02:00,67.0,48.0,29.98,NNE,14,0.0,0.0,51,0.00,,,-99.99,,2013-06-15 08:02:00,
2013-06-15 02:11:00,67.0,48.0,29.98,NNE,14,0.0,0.0,51,0.00,,,-99.99,,2013-06-15 08:11:00,
2013-06-15 02:22:00,66.0,47.0,29.98,North,352,0.0,0.0,51,0.00,,,-99.99,,2013-06-15 08:22:00,
2013-06-15 02:33:00,66.0,47.0,29.99,North,352,0.0,0.0,51,0.00,,,-99.99,,2013-06-15 08:33:00,
2013-06-15 02:42:00,66.0,48.0,29.99,East,91,5.0,5.0,53,0.00,,,-99.99,,2013-06-15 08:42:00,
2013-06-15 02:53:00,65.0,47.0,30.00,East,99,3.0,3.0,53,0.00,,,-99.99,,2013-06-15 08:53:00,
2013-06-15 03:02:00,64.0,47.0,30.00,ESE,111,3.0,3.0,53,0.00,,,-99.99,,2013-06-15 09:02:00,
2013-06-15 03:12:00,65.0,46.0,30.00,ESE,118,0.0,1.0,51,0.00,,,-99.99,,2013-06-15 09:12:00,
2013-06-15 03:22:00,65.0,46.0,30.00,ESE,118,0.0,0.0,51,0.00,,,-99.99,,2013-06-15 09:22:00,
2013-06-15 03:33:00,65.0,46.0,30.00,SE,136,4.0,4.0,51,0.00,,,-99.99,,2013-06-15 09:33:00,
2013-06-15 03:43:00,65.0,46.0,30.00,SE,139,5.0,5.0,51,0.00,,,-99.99,,2013-06-15 09:43:00,
2013-06-15 03:52:00,65.0,46.0,30.00,East,99,4.0,6.0,51,0.00,,,-99.99,,2013-06-15 09:52:00,
2013-06-15 04:02:00,65.0,45.0,30.00,ESE,112,4.0,6.0,49,0.00,,,-99.99,,2013-06-15 10:02:00,
2013-06-15 04:11:00,65.0,46.0,30.00,ESE,102,5.0,6.0,51,0.00,,,-99.99,,2013-06-15 10:11:00,
2013-06-15 04:23:00,66.0,46.0,30.00,ESE,112,4.0,5.0,48,0.00,,,-99.99,,2013-06-15 10:23:00,
2013-06-15 04:33:00,66.0,46.0,30.00,East,101,4.0,7.0,48,0.00,,,-99.99,,2013-06-15 10:33:00,
2013-06-15 04:43:00,65.0,46.0,30.00,NNW,337,0.0,5.0,50,0.00,,,-99.99,,2013-06-15 10:43:00,
2013-06-15 04:53:00,65.0,47.0,30.01,WSW,246,0.0,4.0,53,0.00,,,-99.99,,2013-06-15 10:53:00,
2013-06-15 05:01:00,64.0,47.0,30.01,ENE,78,2.0,3.0,54,0.00,,,-99.99,,2013-06-15 11:01:00,
2013-06-15 05:11:00,65.0,46.0,30.01,ESE,123,1.0,4.0,51,0.00,,,-99.99,,2013-06-15 11:11:00,
2013-06-15 05:22:00,64.0,46.0,30.01,SE,144,0.0,2.0,52,0.00,,,-99.99,,2013-06-15 11:22:00,
2013-06-15 05:33:00,64.0,45.0,30.02,SSE,156,0.0,5.0,51,0.00,,,-99.99,,2013-06-15 11:33:00,
2013-06-15 05:43:00,64.0,46.0,30.02,SSE,156,0.0,0.0,52,0.00,,,-99.99,,2013-06-15 11:43:00,
2013-06-15 05:53:00,64.0,46.0,30.03,West,278,2.0,5.0,52,0.00,,,-99.99,,2013-06-15 11:53:00,
2013-06-15 06:01:00,64.0,48.0,30.03,NE,56,2.0,0.0,56,0.00,,,-99.99,,2013-06-15 12:01:00,
2013-06-15 06:11:00,64.0,47.0,30.03,NE,42,0.0,3.0,54,0.00,,,-99.99,,2013-06-15 12:11:00,
2013-06-15 06:22:00,64.0,46.0,30.03,ESE,113,7.0,7.0,52,0.00,,,-99.99,,2013-06-15 12:22:00,
2013-06-15 06:33:00,65.0,46.0,30.03,ESE,104,4.0,4.0,51,0.00,,,-99.99,,2013-06-15 12:33:00,
2013-06-15 06:43:00,65.0,45.0,30.03,ESE,116,6.0,6.0,49,0.00,,,-99.99,,2013-06-15 12:43:00,
2013-06-15 06:52:00,66.0,45.0,30.03,ESE,115,5.0,6.0,47,0.00,,,-99.99,,2013-06-15 12:52:00,
2013-06-15 07:02:00,66.0,46.0,30.04,SE,133,0.0,0.0,49,0.00,,,-99.99,,2013-06-15 13:02:00,
2013-06-15 07:11:00,66.0,48.0,30.04,West,261,1.0,2.0,52,0.00,,,-99.99,,2013-06-15 13:11:00,
2013-06-15 07:22:00,66.0,48.0,30.04,WSW,244,1.0,3.0,53,0.00,,,-99.99,,2013-06-15 13:22:00,
2013-06-15 07:32:00,66.0,48.0,30.04,South,170,0.0,3.0,52,0.00,,,-99.99,,2013-06-15 13:32:00,
2013-06-15 07:43:00,68.0,48.0,30.04,SSE,157,0.0,3.0,49,0.00,,,-99.99,,2013-06-15 13:43:00,
2013-06-15 07:53:00,69.0,47.0,30.04,SSE,168,2.0,2.0,46,0.00,,,-99.99,,2013-06-15 13:53:00,
2013-06-15 08:01:00,71.0,48.0,30.03,SSE,151,1.0,3.0,44,0.00,,,-99.99,,2013-06-15 14:01:00,
2013-06-15 08:12:00,72.0,47.0,30.03,SSW,213,4.0,5.0,41,0.00,,,-99.99,,2013-06-15 14:12:00,
2013-06-15 08:22:00,72.0,46.0,30.03,WSW,239,4.0,6.0,40,0.00,,,-99.99,,2013-06-15 14:22:00,
2013-06-15 08:34:00,72.0,46.0,30.04,SW,225,8.0,8.0,40,0.00,,,-99.99,,2013-06-15 14:34:00,
2013-06-15 08:43:00,73.0,47.0,30.04,SW,227,8.0,9.0,39,0.00,,,-99.99,,2013-06-15 14:43:00,
2013-06-15 08:53:00,73.0,45.0,30.04,SSE,153,9.0,11.0,37,0.00,,,-99.99,,2013-06-15 14:53:00,
2013-06-15 09:01:00,73.0,45.0,30.04,SW,229,7.0,13.0,37,0.00,,,-99.99,,2013-06-15 15:01:00,
2013-06-15 09:11:00,74.0,45.0,30.03,SSW,209,6.0,11.0,35,0.00,,,-99.99,,2013-06-15 15:11:00,
2013-06-15 09:22:00,73.0,45.0,30.04,SW,225,6.0,10.0,37,0.00,,,-99.99,,2013-06-15 15:22:00,
2013-06-15 09:33:00,74.0,45.0,30.03,SSW,192,9.0,10.0,36,0.00,,,-99.99,,2013-06-15 15:33:00,
2013-06-15 09:43:00,74.0,45.0,30.03,South,175,5.0,11.0,35,0.00,,,-99.99,,2013-06-15 15:43:00,
2013-06-15 09:53:00,75.0,44.0,30.03,SW,220,8.0,13.0,33,0.00,,,-99.99,,2013-06-15 15:53:00,
2013-06-15 10:01:00,76.0,44.0,30.03,SSE,160,8.0,11.0,32,0.00,,,-99.99,,2013-06-15 16:01:00,
2013-06-15 10:11:00,76.0,44.0,30.02,South,191,10.0,10.0,32,0.00,,,-99.99,,2013-06-15 16:11:00,
2013-06-15 10:22:00,76.0,43.0,30.02,SSW,206,9.0,15.0,31,0.00,,,-99.99,,2013-06-15 16:22:00,
2013-06-15 10:33:00,76.0,43.0,30.01,South,187,10.0,10.0,31,0.00,,,-99.99,,2013-06-15 16:33:00,
2013-06-15 10:43:00,77.0,43.0,30.01,SSW,203,6.0,10.0,30,0.00,,,-99.99,,2013-06-15 16:43:00,
2013-06-15 10:53:00,78.0,42.0,30.01,South,188,6.0,9.0,28,0.00,,,-99.99,,2013-06-15 16:53:00,
2013-06-15 11:02:00,79.0,42.0,30.01,SW,229,7.0,11.0,27,0.00,,,-99.99,,2013-06-15 17:02:00,
2013-06-15 11:11:00,79.0,42.0,30.01,WSW,241,6.0,11.0,27,0.00,,,-99.99,,2013-06-15 17:11:00,
2013-06-15 11:21:00,79.0,41.0,30.00,South,189,6.0,8.0,26,0.00,,,-99.99,,2013-06-15 17:21:00,
2013-06-15 11:32:00,81.0,41.0,30.00,South,174,7.0,10.0,24,0.00,,,-99.99,,2013-06-15 17:32:00,
2013-06-15 11:43:00,80.0,39.0,30.00,WSW,258,5.0,10.0,23,0.00,,,-99.99,,2013-06-15 17:43:00,
2013-06-15 15:42:00,89.0,13.0,29.88,NNW,344,3.0,13.0,6,0.00,,,-99.99,,2013-06-15 21:42:00,
2013-06-15 17:11:00,85.0,22.0,29.91,SE,129,22.0,22.0,10,0.00,,,-99.99,,2013-06-15 23:11:00,
2013-06-15 20:01:00,84.0,22.0,29.91,NW,310,0.0,0.0,10,0.00,,,-99.99,,2013-06-16 02:01:00,
2013-06-15 20:12:00,84.0,22.0,29.91,NW,310,0.0,0.0,10,0.00,,,-99.99,,2013-06-16 02:12:00,
2013-06-15 20:22:00,84.0,22.0,29.91,NW,307,0.0,0.0,10,0.00,,,-99.99,,2013-06-16 02:22:00,
2013-06-15 21:33:00,77.0,33.0,30.01,NNW,327,12.0,27.0,20,0.00,,,-99.99,,2013-06-16 03:33:00,
2013-06-15 21:43:00,77.0,33.0,30.03,North,4,15.0,29.0,20,0.00,,,-99.99,,2013-06-16 03:43:00,
2013-06-15 21:53:00,77.0,32.0,30.03,NNW,347,14.0,19.0,19,0.00,,,-99.99,,2013-06-16 03:53:00,
2013-06-15 22:01:00,76.0,32.0,30.04,NNE,15,8.0,18.0,20,0.00,,,-99.99,,2013-06-16 04:01:00,
2013-06-15 22:12:00,76.0,32.0,30.04,North,7,9.0,18.0,20,0.00,,,-99.99,,2013-06-16 04:12:00,
2013-06-15 22:23:00,76.0,32.0,30.05,North,11,9.0,19.0,20,0.00,,,-99.99,,2013-06-16 04:23:00,
2013-06-15 22:33:00,75.0,32.0,30.05,NNW,341,11.0,14.0,21,0.00,,,-99.99,,2013-06-16 04:33:00,
2013-06-15 22:42:00,75.0,34.0,30.06,North,7,11.0,18.0,22,0.00,,,-99.99,,2013-06-16 04:42:00,
2013-06-15 22:53:00,75.0,34.0,30.06,NW,320,10.0,16.0,22,0.00,,,-99.99,,2013-06-16 04:53:00,
2013-06-15 23:01:00,75.0,34.0,30.06,North,358,8.0,18.0,22,0.00,,,-99.99,,2013-06-16 05:01:00,
2013-06-15 23:11:00,75.0,32.0,30.06,North,4,16.0,19.0,21,0.00,,,-99.99,,2013-06-16 05:11:00,
2013-06-15 23:22:00,75.0,32.0,30.07,North,8,8.0,19.0,21,0.00,,,-99.99,,2013-06-16 05:22:00,
2013-06-15 23:33:00,75.0,32.0,30.06,North,355,13.0,23.0,21,0.00,,,-99.99,,2013-06-16 05:33:00,
2013-06-15 23:43:00,75.0,32.0,30.08,North,358,8.0,21.0,21,0.00,,,-99.99,,2013-06-16 05:43:00,
2013-06-15 23:52:00,75.0,32.0,30.07,NNE,22,8.0,18.0,21,0.00,,,-99.99,,2013-06-16 05:52:00,